EW3204 Weather Reports


Display with metric or nautical units.
time (UTC)temp
F
wind
direction
speed
MPH
gust
MPH
rain 1hr
in
rain 24hr
in
rain mn
in
humidity
%
barometer
mb
20260504200002 70 297 13.0 0.0 0.00 0.00 0.00 33 1010.1
20260504194602 70 289 14.0 0.0 0.00 0.00 0.00 33 1010.3
20260504193058 70 279 12.0 0.0 0.00 0.00 0.00 33 1010.2
20260504191600 69 299 13.0 0.0 0.00 0.00 0.00 33 1010.4
20260504190053 69 310 14.0 0.0 0.00 0.00 0.00 34 1010.6
20260504184551 68 290 12.0 0.0 0.00 0.00 0.00 35 1010.9
20260504183051 68 288 11.0 0.0 0.00 0.00 0.00 36 1011.1
20260504181549 67 279 11.0 0.0 0.00 0.00 0.00 37 1011.4
20260504180046 66 307 11.0 0.0 0.00 0.00 0.00 37 1011.4
20260504174544 65 275 12.0 0.0 0.00 0.00 0.00 39 1011.4
20260504173042 65 309 11.0 0.0 0.00 0.00 0.00 40 1011.3
20260504171546 65 301 11.0 0.0 0.00 0.00 0.00 37 1011.1
20260504090105 61 288 15.0 0.0 0.00 0.00 0.00 49 1008.7
20260504081556 62 271 12.0 0.0 0.00 0.00 0.00 48 1009.5
20260504044534 65 287 4.0 0.0 0.00 0.00 0.00 41 1006.7
20260504043024 65 302 7.0 0.0 0.00 0.00 0.00 41 1006.5
20260504041520 66 289 8.0 0.0 0.00 0.00 0.00 42 1006.3
20260504040018 67 232 9.0 0.0 0.00 0.00 0.00 36 1006.2
20260504034517 67 190 12.0 0.0 0.00 0.00 0.00 36 1006.1
20260504033017 67 217 17.0 0.0 0.00 0.00 0.00 37 1005.8
20260504031516 68 235 17.0 0.0 0.00 0.00 0.00 35 1005.7
20260504030018 67 265 12.0 0.0 0.00 0.00 0.00 38 1005.3
20260504024511 69 230 11.0 0.0 0.00 0.00 0.00 35 1005.6
20260504023010 69 293 9.0 0.0 0.00 0.00 0.00 39 1005.7
20260504021511 71 269 20.0 0.0 0.00 0.00 0.00 33 1005.0
20260504020013 73 250 16.0 0.0 0.00 0.00 0.00 33 1004.8
20260504014505 74 304 14.0 0.0 0.00 0.00 0.00 31 1004.6
20260504013009 76 241 9.0 0.0 0.00 0.00 0.00 26 1004.6
20260504011502 77 242 12.0 0.0 0.00 0.00 0.00 26 1004.4
20260504010002 78 342 8.0 0.0 0.00 0.00 0.00 26 1004.1
20260504004502 79 242 5.0 0.0 0.00 0.00 0.00 24 1004.3
20260504003000 79 267 11.0 0.0 0.00 0.00 0.00 22 1003.9
20260504001608 81 244 9.0 0.0 0.00 0.00 0.00 21 1003.7
20260504001502 81 240 9.0 0.0 0.00 0.00 0.00 21 1003.6
20260504000100 82 242 11.0 0.0 0.00 0.00 0.00 20 1003.6
20260503234600 82 217 15.0 0.0 0.00 0.00 0.00 21 1003.1
20260503233102 82 196 17.0 0.0 0.00 0.00 0.00 23 1003.1
20260503231559 82 208 22.0 0.0 0.00 0.00 0.00 22 1002.8
20260503224557 85 209 16.0 0.0 0.00 0.00 0.00 20 1002.7
20260503223056 85 234 13.0 0.0 0.00 0.00 0.00 20 1002.9
20260503221555 86 139 8.0 0.0 0.00 0.00 0.00 20 1003.1
20260503220053 86 177 11.0 0.0 0.00 0.00 0.00 18 1003.3
20260503214600 86 192 14.0 0.0 0.00 0.00 0.00 18 1003.6
20260503213052 86 219 11.0 0.0 0.00 0.00 0.00 19 1003.6
20260503211553 86 202 13.0 0.0 0.00 0.00 0.00 21 1003.8
20260503210048 85 215 14.0 0.0 0.00 0.00 0.00 20 1003.8
20260503204555 86 206 13.0 0.0 0.00 0.00 0.00 19 1003.9
20260503203049 86 162 13.0 0.0 0.00 0.00 0.00 18 1004.2
20260503201543 87 162 12.0 0.0 0.00 0.00 0.00 16 1004.4